[[{"header":{"parameterUnit":"m.s-1","parameterCategory":1,"la1":30.2991,"la2":30.254,"lo1":-89.0895,"lo2":-89.0444,"dy":0.0017,"dx":0.0017,"nx":28,"ny":28,"refTime":"2025-03-10T21:00:00:Z","depth":0,"parameterNumber":2,"parameterNumberName":"U-component_of_WINDS"},"data":[0,0,0,0,0,0,0,0,0,0,0,0,0,0,0,0,0,0,0,0,0,0,0,0,0,0,0,0,0,0,0,0,0,0,0,0,0,0,0,0,0,0,0,0,0,0,0,0,0,0,0,0,0,0,0,0,0,0,1.2197,1.2197,0,1.2226,1.2227,1.2227,1.2156,1.2154,1.2152,1.215,1.2184,1.2187,1.219,0,0,0,0,0,0,0,0,0,0,0,0,0,1.208,1.2083,1.2197,1.2197,1.2197,1.2226,1.2227,1.2227,1.2157,1.2154,1.2151,1.2148,1.2183,1.2187,1.219,0,0,0,0,0,0,0,0,0,0,0,0,0,1.2123,1.2084,1.2197,1.2166,1.2163,1.2226,1.2227,1.2227,1.2157,1.2154,1.215,1.2147,1.2182,1.2186,1.2191,1.2287,0,0,1.2204,1.2206,0,0,0,0,0,0,0,0,1.212,1.2127,1.217,1.2168,1.2165,1.2184,1.2198,1.2247,1.2158,1.216,1.2149,1.2146,1.2187,1.2191,1.2204,1.2288,1.229,1.2205,1.2208,1.221,1.2211,0,0,0,0,0,0,0,1.2118,1.2125,1.2209,1.217,1.2168,1.2151,1.2153,1.2207,1.2192,1.2159,1.2154,1.2158,1.2185,1.22,1.2204,1.229,1.2205,1.2209,1.2212,1.2213,1.2453,1.2456,0,0,0,0,0,0,1.2118,1.2123,1.2208,1.2209,1.2134,1.2156,1.2158,1.2182,1.2191,1.2189,1.2161,1.2155,1.2194,1.2199,1.2205,1.2317,1.221,1.2214,1.2216,1.2449,1.2453,1.2457,0,0,0,0,0,0,1.2116,1.2126,1.2206,1.2165,1.2174,1.2161,1.2188,1.2184,1.2198,1.2193,1.219,1.2179,1.2191,1.2199,1.2266,1.2318,1.2216,1.222,1.2445,1.245,1.2455,1.2543,0,0,0,0,0,0,1.2113,1.2126,1.2162,1.2166,1.2176,1.2267,1.2191,1.2187,1.2206,1.2198,1.2209,1.2207,1.2189,1.226,1.2271,1.2322,1.2224,1.244,1.2447,1.2454,1.2536,1.2551,1.2564,0,0,0,0,0,1.2109,1.2187,1.2164,1.2175,1.2221,1.227,1.2276,1.2252,1.2211,1.2247,1.2243,1.2207,1.231,1.2267,1.2279,1.2333,1.2437,1.2445,1.2453,1.253,1.2548,1.2564,0,0,0,0,0,0,1.2191,1.2187,1.2162,1.2244,1.2257,1.2258,1.2303,1.2273,1.23,1.2292,1.2262,1.2265,1.2338,1.2342,1.2295,1.2425,1.2366,1.2377,1.242,1.2438,1.2452,1.245,1.2227,0,0,0,0,0,1.2219,1.2258,1.2252,1.2325,1.2332,1.2317,1.2337,1.2317,1.2331,1.2337,1.2338,1.2354,1.2389,1.2414,1.2446,1.2535,1.2536,1.2578,1.2592,1.2603,1.2614,1.266,1.2679,1.2484,1.2484,1.2484,0,0,1.2276,1.2279,1.2306,1.2341,1.235,1.2391,1.2322,1.237,1.24,1.2345,1.2408,1.2409,1.2424,1.2503,1.2537,1.2508,1.2667,1.2614,1.2623,1.2627,1.2671,1.2689,1.2706,1.249,1.2489,1.2488,0,0,1.2403,1.2408,1.2469,1.2478,1.249,1.2479,1.2493,1.2498,1.2496,1.2558,1.2517,1.2553,1.2615,1.2627,1.2642,1.2769,1.2737,1.278,1.2856,1.2901,1.2917,1.293,1.2976,1.2993,1.279,1.2791,1.2791,0,1.2473,1.2533,1.2504,1.2553,1.257,1.2519,1.258,1.2591,1.2614,1.2627,1.2593,1.2668,1.2675,1.2755,1.2786,1.2799,1.2815,1.278,1.2916,1.293,1.2942,1.2985,1.3002,1.2796,1.2795,1.2795,1.2794,0,1.2619,1.2661,1.2709,1.2731,1.2752,1.2808,1.2787,1.2812,1.279,1.2782,1.2846,1.2851,1.2883,1.29,1.288,1.2977,1.2959,1.2921,1.2862,1.2966,1.3006,1.3023,1.2803,1.2802,1.28,1.2799,0,0,1.2802,1.2804,1.2822,1.283,1.2839,1.2872,1.2924,1.2953,1.2976,1.2993,1.3036,1.3088,1.3053,1.3069,1.3049,1.3089,1.319,1.3046,1.3046,1.3073,1.3297,1.3326,1.3346,1.3167,1.317,1.3173,1.3296,0,1.2926,1.3015,1.2989,1.3078,1.3117,1.3067,1.3112,1.3123,1.3116,1.3148,1.3141,1.3178,1.3128,1.3138,1.3175,1.317,1.3234,1.316,1.3208,1.3211,1.3208,1.3367,1.3398,1.3514,1.3311,1.3314,1.3316,0,1.3085,1.3106,1.3199,1.3199,1.3215,1.3256,1.328,1.3311,1.3321,1.3313,1.333,1.3301,1.3352,1.3291,1.3361,1.3312,1.3329,1.3329,1.3333,1.3338,1.3271,1.3377,1.3551,1.3569,1.334,1.3338,1.3337,0,1.3209,1.3261,1.3322,1.3331,1.3333,1.3363,1.3366,1.3373,1.3391,1.3413,1.3424,1.3452,1.3467,1.3489,1.3468,1.3426,1.3542,1.3479,1.3538,1.3538,1.3566,1.3565,1.3747,1.3576,1.3575,1.3575,1.3575,0,1.3352,1.3411,1.3378,1.3417,1.3481,1.3449,1.3514,1.351,1.3516,1.3553,1.3512,1.3548,1.3517,1.355,1.3534,1.3595,1.3602,1.3598,1.3593,1.3602,1.3603,1.3615,1.3607,1.358,1.3579,1.3578,1.3577,0,1.3503,1.3483,1.3547,1.3543,1.3543,1.359,1.3587,1.3622,1.3611,1.3658,1.3667,1.365,1.3687,1.3667,1.3706,1.3694,1.3773,1.3757,1.377,1.3766,1.3826,1.3821,1.4022,1.4047,1.3859,1.3861,1.3863,0,1.3597,1.3641,1.364,1.3661,1.3665,1.37,1.3718,1.3688,1.3709,1.3722,1.3756,1.3788,1.3813,1.3873,1.3865,1.3894,1.3879,1.3947,1.3883,1.389,1.3881,1.3879,1.3883,1.3961,1.3963,1.3965,1.3966,0,1.3765,1.3752,1.3779,1.3803,1.3825,1.3843,1.3857,1.3877,1.3846,1.3872,1.3908,1.3926,1.3964,1.3997,1.402,1.4023,1.3991,1.3986,1.4001,1.4012,1.4018,1.4016,1.3806,1.3982,1.3981,1.3979,1.3979,1.3978,1.3891,1.3927,1.3931,1.3963,1.3969,1.3983,1.4015,1.4007,1.4036,1.4063,1.4043,1.4085,1.4093,1.4121,1.4128,1.4161,1.4134,1.4156,1.4161,1.4168,1.4176,1.4011,1.4165,1.4164,1.4164,1.4164,1.4163,0,1.4057,1.4057,1.4086,1.4106,1.413,1.4094,1.4107,1.413,1.4168,1.4176,1.42,1.4241,1.4272,1.4264,1.4292,1.432,1.4305,1.4328,1.4327,1.4328,1.4199,1.4183,1.4339,1.4339,1.4339,1.4339,1.4339,1.4339,1.4147,1.4206,1.4194,1.4255,1.4254,1.4294,1.4305,1.4317,1.4323,1.437,1.4394,1.4389,1.4391,1.4418,1.4445,1.4441,1.4454,1.4483,1.4475,1.4355,1.4337,1.4321,1.4306,1.4486,1.4486,1.4602,1.4603,1.4604]},{"header":{"parameterUnit":"m.s-1","parameterCategory":1,"la1":30.2991,"la2":30.254,"lo1":-89.0895,"lo2":-89.0444,"dy":0.0017,"dx":0.0017,"nx":28,"ny":28,"refTime":"2025-03-10T21:00:00:Z","depth":0,"parameterNumber":3,"parameterNumberName":"V-component_of_WINDS"},"data":[0,0,0,0,0,0,0,0,0,0,0,0,0,0,0,0,0,0,0,0,0,0,0,0,0,0,0,0,0,0,0,0,0,0,0,0,0,0,0,0,0,0,0,0,0,0,0,0,0,0,0,0,0,0,0,0,0,0,4.0555,4.0555,0,4.054,4.054,4.054,4.0449,4.0447,4.0445,4.0442,4.0429,4.043,4.0432,0,0,0,0,0,0,0,0,0,0,0,0,0,4.0505,4.0506,4.0555,4.0555,4.0555,4.054,4.054,4.054,4.0449,4.0447,4.0444,4.0441,4.0428,4.043,4.0432,0,0,0,0,0,0,0,0,0,0,0,0,0,4.0512,4.0507,4.0555,4.0508,4.0503,4.054,4.054,4.054,4.045,4.0447,4.0443,4.044,4.0428,4.043,4.0433,4.0515,0,0,4.044,4.0441,0,0,0,0,0,0,0,0,4.0512,4.0514,4.0515,4.0511,4.0506,4.0493,4.0517,4.0532,4.0451,4.047,4.0442,4.0439,4.0453,4.0453,4.0458,4.0514,4.0513,4.0441,4.0442,4.0443,4.0444,0,0,0,0,0,0,0,4.0512,4.0514,4.0549,4.0515,4.051,4.0487,4.0485,4.052,4.048,4.0468,4.0462,4.0461,4.045,4.0456,4.0457,4.0513,4.044,4.0443,4.0444,4.0445,4.0634,4.0637,0,0,0,0,0,0,4.0518,4.0515,4.055,4.0549,4.0501,4.0491,4.0488,4.0501,4.048,4.0473,4.0464,4.0457,4.0453,4.0454,4.0456,4.0549,4.0443,4.0446,4.0447,4.063,4.0635,4.0638,0,0,0,0,0,0,4.0517,4.0522,4.055,4.053,4.0532,4.0495,4.051,4.0502,4.0507,4.0476,4.0469,4.0477,4.045,4.0452,4.05,4.0547,4.0447,4.0449,4.0626,4.0632,4.0637,4.0737,0,0,0,0,0,0,4.0516,4.0522,4.0553,4.0531,4.0533,4.0595,4.0513,4.0504,4.0512,4.0503,4.0487,4.0481,4.0448,4.0497,4.0503,4.0549,4.0451,4.0622,4.0629,4.0635,4.0729,4.0745,4.0758,0,0,0,0,0,4.0514,4.0582,4.0555,4.056,4.0571,4.0598,4.0599,4.0559,4.0516,4.0547,4.0526,4.0481,4.0542,4.0502,4.0508,4.0556,4.0619,4.0627,4.0634,4.0723,4.0742,4.0758,0,0,0,0,0,0,4.0611,4.0579,4.0548,4.0611,4.0608,4.0582,4.062,4.0581,4.0591,4.0582,4.0533,4.053,4.0585,4.0575,4.0532,4.0633,4.0572,4.0582,4.0637,4.0655,4.067,4.067,4.0453,0,0,0,0,0,4.064,4.0664,4.0634,4.0693,4.0693,4.0657,4.0667,4.0637,4.0632,4.063,4.0613,4.0611,4.0629,4.0642,4.0657,4.0728,4.0722,4.0763,4.0778,4.079,4.0798,4.0834,4.0851,4.0664,4.0664,4.0664,0,0,4.0699,4.0684,4.0703,4.0712,4.0706,4.0732,4.0656,4.0688,4.0706,4.0635,4.0678,4.0666,4.066,4.0719,4.0745,4.0713,4.0849,4.08,4.081,4.0812,4.0844,4.0861,4.0877,4.067,4.0669,4.0668,0,0,4.082,4.0812,4.0859,4.0854,4.0845,4.0821,4.0832,4.0813,4.0802,4.0844,4.0791,4.0813,4.0846,4.0843,4.0845,4.0965,4.0923,4.0971,4.1047,4.1082,4.1097,4.1109,4.115,4.1166,4.098,4.098,4.098,0,4.0895,4.0932,4.0888,4.0922,4.0927,4.0863,4.0909,4.0907,4.0905,4.091,4.0875,4.0913,4.0905,4.0961,4.099,4.0995,4.1006,4.0972,4.1098,4.111,4.1122,4.116,4.1176,4.0986,4.0985,4.0985,4.0984,0,4.1023,4.105,4.1088,4.1086,4.1096,4.1136,4.1098,4.1113,4.1082,4.1061,4.1105,4.1093,4.1103,4.1115,4.1085,4.1168,4.1148,4.1107,4.1044,4.1146,4.1181,4.1196,4.0994,4.0992,4.099,4.0989,0,0,4.1205,4.1177,4.1191,4.1189,4.1175,4.1194,4.1232,4.1241,4.1254,4.1255,4.1284,4.1313,4.1274,4.1277,4.1247,4.1278,4.1371,4.1232,4.1231,4.1257,4.1459,4.1489,4.1507,4.1344,4.1346,4.1349,4.1459,0,4.1319,4.138,4.1341,4.1408,4.1431,4.1371,4.1403,4.1398,4.138,4.1397,4.1376,4.1397,4.1344,4.1346,4.1374,4.1354,4.1411,4.1345,4.137,4.1371,4.1372,4.1526,4.1558,4.1663,4.1473,4.1475,4.1477,0,4.1461,4.1466,4.1535,4.1514,4.1523,4.1552,4.1557,4.1575,4.1567,4.1552,4.1555,4.1517,4.1552,4.1491,4.1538,4.1494,4.1502,4.1494,4.1497,4.1497,4.1429,4.1528,4.1696,4.1711,4.1498,4.1497,4.1495,0,4.1584,4.1608,4.1652,4.1652,4.163,4.1652,4.1644,4.1633,4.1641,4.1646,4.165,4.166,4.1664,4.1673,4.1638,4.1597,4.1689,4.1626,4.1676,4.1677,4.1697,4.1696,4.1867,4.1706,4.1705,4.1705,4.1705,0,4.1715,4.1759,4.1707,4.1734,4.1781,4.1737,4.1785,4.1771,4.1762,4.1784,4.1734,4.1757,4.171,4.1728,4.1701,4.1743,4.1746,4.1734,4.1726,4.1738,4.1739,4.1741,4.1733,4.1709,4.1708,4.1707,4.1707,0,4.186,4.1827,4.187,4.1845,4.184,4.1876,4.1854,4.1878,4.1856,4.1886,4.1891,4.1857,4.1875,4.1841,4.1856,4.1838,4.1897,4.1878,4.1899,4.1893,4.1945,4.194,4.2121,4.2142,4.1969,4.1971,4.1972,0,4.1945,4.1977,4.1955,4.1966,4.196,4.198,4.1987,4.1944,4.1954,4.1947,4.1972,4.1986,4.1995,4.2028,4.2004,4.2015,4.1996,4.2059,4.1997,4.2007,4.1994,4.1992,4.1995,4.2071,4.2073,4.2075,4.2076,0,4.2099,4.208,4.2092,4.2098,4.2108,4.2111,4.211,4.2123,4.2077,4.2091,4.2108,4.2115,4.213,4.2144,4.2149,4.2141,4.2101,4.2096,4.2108,4.2119,4.2129,4.2122,4.1931,4.2091,4.209,4.2089,4.2088,4.2087,4.2215,4.224,4.2228,4.2242,4.2237,4.2237,4.2258,4.2238,4.2252,4.2259,4.2234,4.2257,4.2248,4.2251,4.2247,4.2265,4.2237,4.2255,4.2259,4.2263,4.2271,4.2128,4.2266,4.2265,4.2265,4.2264,4.2264,0,4.2364,4.2353,4.2367,4.2367,4.2378,4.2339,4.2336,4.2348,4.2369,4.2364,4.2373,4.2393,4.2407,4.2385,4.2395,4.2413,4.2395,4.2417,4.2414,4.2413,4.2296,4.2284,4.2431,4.2431,4.2431,4.2431,4.2431,4.2431,4.2443,4.2483,4.2463,4.2499,4.2488,4.251,4.2511,4.2511,4.2506,4.2531,4.2541,4.2526,4.2514,4.2522,4.2533,4.2526,4.2532,4.256,4.2547,4.2438,4.2421,4.2406,4.2394,4.2562,4.2562,4.2661,4.2662,4.2663]}]]